User: anonymous   Login
Location: Newark
(7.0858°N, 171.3717°E)
Time: 12:38:51
(UTC+00:00)
Language:

XW-2B - Orbit

View from above orbital plane
View from above orbital plane
View from above satellite
View from above satellite

Ground track
Ground track

The orbit data is extracted from the following two-line orbital elements,

1 40911U 15049N   19289.22075439  .00000359  00000-0  22154-4 0  9990
2 40911  97.4716 289.7013 0014903 137.4297 285.6478 15.15905665225014
Epoch (UTC): 16 October 2019 05:17:53
Eccentricity: 0.0014903
inclination: 97.4716°
perigee height: 508 km
apogee height: 528 km
right ascension of ascending node: 289.7013°
argument of perigee: 137.4297°
revolutions per day: 15.15905665
mean anomaly at epoch: 285.6478°
orbit number at epoch: 22501

The dashed part of the orbit path shows where the satellite is in the earth's shadow,  

DLR